sat.trackr.live / text

‹ back to catalog

NAVIGATOR

NORAD 69887 · 2026-156U

PAYLOAD ACTIVE UNKNOWN

§ Identity

Operator
Country
US
Launch date
2026-07-07
Launch site
AFWTR
Launch vehicle
Mass (kg)
RCS (m²)

External: N2YO · Heavens-Above · Gunter

§ Orbital elements

Epoch: 2026-09-19T12:36:47.767104Z

Period
96.52 min
Inclination
97.7467°
Eccentricity
0.0005702
Mean motion
14.91861506 rev/d
Perigee alt
588.2 km
Apogee alt
596.1 km
Semi-major
6,970.3 km
B*
5.8818e-5
RAAN
161.7532°
Arg perigee
271.6206°
Mean anomaly
88.4359°
Rev number
1,106

§ Raw data

NAVIGATOR1 69887U 26156U   26262.52555286  .00000538  00000+0  58818-4 0  99932 69887  97.7467 161.7532 0005702 271.6206  88.4359 14.91861506 11069

JSON: /api/v1/satellites/69887 · /tle

For live sub-satellite position, see the globe view (requires WebGL).

§ Visibility from observer

Set your observer location to see the next 7 days of passes ≥ 10°. The values pass through the URL so the page stays shareable.

No JS? Fill the form by hand. The geolocation button needs JavaScript.